Total_Precipitation_Accumulation
0.11 0.12 0.14 0.18 0.20 0.21 0.27 0.32 0.38 0.53 0.66 0.75 0.87 1.06 1.22 1.37 1.50 1.62 1.50 1.32 1.24 1.38 1.43 1.30 1.22 1.07 0.83 0.71 0.60 0.53 0.53 0.34 0.13 0.15 0.15 0.07 0.03 0.02 0.01 0.01 0.01 0.01 0.01
0.07 0.06 0.06 0.09 0.10 0.11 0.15 0.22 0.28 0.39 0.51 0.64 0.86 1.09 1.37 1.43 1.50 1.63 1.69 1.61 1.51 1.61 1.60 1.65 1.61 1.52 1.36 1.18 0.97 0.90 0.96 0.71 0.35 0.37 0.53 0.36 0.20 0.08 0.04 0.03 0.02 0.02 0.02
0.06 0.04 0.04 0.05 0.07 0.07 0.09 0.15 0.25 0.41 0.61 0.81 1.10 1.38 1.61 1.67 1.69 1.63 1.71 1.79 1.83 1.86 1.85 1.89 1.88 1.78 1.54 1.41 1.37 1.31 1.50 1.23 0.78 0.55 0.65 0.59 0.48 0.30 0.09 0.04 0.04 0.03 0.02
0.08 0.06 0.06 0.07 0.08 0.10 0.14 0.22 0.36 0.56 0.82 1.14 1.44 1.66 1.89 1.98 1.81 1.79 1.83 1.82 1.77 1.80 1.88 1.88 1.83 1.76 1.63 1.61 1.57 1.45 1.62 1.64 1.24 0.91 0.66 0.50 0.46 0.46 0.34 0.16 0.08 0.08 0.06
0.14 0.12 0.13 0.14 0.18 0.23 0.29 0.44 0.66 0.95 1.21 1.41 1.58 1.78 1.90 1.90 1.86 1.82 1.81 1.73 1.71 1.66 1.67 1.65 1.68 1.68 1.67 1.68 1.73 1.68 1.79 1.72 1.55 1.25 1.06 0.92 0.72 0.52 0.50 0.45 0.26 0.14 0.09
0.19 0.20 0.22 0.28 0.35 0.39 0.51 0.68 0.86 1.13 1.27 1.37 1.49 1.66 1.78 1.81 1.82 1.78 1.79 1.77 1.72 1.60 1.52 1.51 1.53 1.60 1.68 1.68 1.71 1.72 1.80 1.80 1.75 1.50 1.25 1.13 1.02 0.88 0.82 0.64 0.49 0.34 0.17
0.27 0.28 0.36 0.50 0.58 0.63 0.70 0.84 0.92 1.06 1.15 1.18 1.28 1.41 1.47 1.49 1.51 1.48 1.43 1.37 1.31 1.27 1.29 1.36 1.42 1.52 1.60 1.60 1.60 1.65 1.63 1.66 1.78 1.67 1.46 1.23 1.05 1.00 0.91 0.83 0.64 0.51 0.28
0.42 0.54 0.66 0.76 0.83 0.83 0.80 0.81 0.92 0.97 0.94 0.94 0.96 1.06 1.11 1.14 1.16 1.11 1.09 1.09 1.11 1.11 1.07 1.09 1.16 1.33 1.50 1.54 1.51 1.46 1.41 1.43 1.54 1.47 1.39 1.33 1.11 1.01 0.92 0.89 0.94 0.81 0.64
0.66 0.88 1.07 1.18 1.25 1.17 0.97 0.83 0.83 0.81 0.78 0.80 0.82 0.85 0.87 0.89 0.87 0.86 0.83 0.87 0.89 0.87 0.81 0.81 0.86 0.94 1.12 1.31 1.39 1.29 1.18 1.13 1.20 1.23 1.22 1.26 1.22 1.09 0.98 0.99 0.99 0.95 0.81
1.09 1.34 1.58 1.70 1.68 1.48 1.21 0.93 0.78 0.73 0.68 0.69 0.70 0.72 0.73 0.71 0.66 0.64 0.62 0.60 0.62 0.65 0.64 0.62 0.65 0.73 0.83 0.98 1.13 1.17 1.14 1.05 1.03 1.10 1.19 1.24 1.25 1.24 1.04 0.96 0.94 0.86 0.79
1.52 1.66 1.81 1.86 1.59 1.41 1.17 0.91 0.76 0.77 0.77 0.75 0.72 0.69 0.65 0.60 0.55 0.52 0.50 0.47 0.47 0.48 0.50 0.56 0.60 0.65 0.73 0.88 1.08 1.18 1.15 1.06 1.02 1.01 1.06 1.16 1.21 1.37 1.28 1.12 0.99 0.89 0.82
1.27 1.35 1.41 1.36 1.32 1.27 1.10 0.94 0.85 0.84 0.87 0.85 0.83 0.73 0.63 0.57 0.56 0.54 0.47 0.45 0.40 0.39 0.44 0.48 0.52 0.56 0.56 0.66 0.81 0.96 1.02 1.00 0.91 0.87 0.91 1.05 1.19 1.38 1.45 1.40 1.24 1.11 0.99
1.10 1.10 1.10 1.11 1.14 1.11 0.99 0.97 0.94 0.94 0.93 0.90 0.81 0.72 0.64 0.55 0.51 0.45 0.41 0.45 0.43 0.44 0.50 0.54 0.59 0.59 0.59 0.58 0.60 0.65 0.73 0.78 0.75 0.72 0.72 0.75 0.86 1.09 1.27 1.34 1.34 1.33 1.23
0.86 0.87 0.91 0.94 1.03 1.00 0.96 0.91 0.87 0.92 1.00 1.06 0.96 0.85 0.73 0.61 0.55 0.48 0.43 0.40 0.41 0.43 0.46 0.47 0.52 0.61 0.61 0.58 0.58 0.56 0.53 0.51 0.52 0.55 0.61 0.64 0.67 0.80 0.92 1.01 1.17 1.37 1.35
0.55 0.60 0.64 0.64 0.62 0.59 0.61 0.63 0.69 0.80 0.94 1.08 1.07 0.93 0.74 0.61 0.54 0.49 0.42 0.40 0.39 0.39 0.41 0.44 0.46 0.52 0.57 0.62 0.64 0.51 0.43 0.40 0.37 0.35 0.39 0.45 0.54 0.61 0.65 0.70 0.93 1.18 1.29
0.33 0.31 0.32 0.33 0.34 0.31 0.28 0.27 0.33 0.48 0.73 0.99 0.97 0.75 0.58 0.46 0.41 0.41 0.39 0.35 0.33 0.36 0.40 0.40 0.41 0.50 0.51 0.60 0.57 0.42 0.37 0.37 0.38 0.37 0.32 0.33 0.36 0.38 0.41 0.46 0.56 0.75 0.93
0.20 0.20 0.20 0.20 0.20 0.19 0.18 0.19 0.26 0.38 0.54 0.64 0.60 0.51 0.40 0.38 0.41 0.42 0.36 0.34 0.33 0.34 0.36 0.37 0.38 0.41 0.51 0.49 0.34 0.33 0.32 0.37 0.39 0.38 0.39 0.36 0.31 0.32 0.32 0.38 0.41 0.41 0.47
0.11 0.11 0.12 0.13 0.15 0.16 0.19 0.22 0.27 0.34 0.38 0.40 0.40 0.34 0.30 0.31 0.34 0.35 0.34 0.39 0.44 0.41 0.41 0.43 0.43 0.41 0.45 0.40 0.28 0.29 0.30 0.37 0.40 0.40 0.42 0.48 0.44 0.41 0.45 0.42 0.44 0.39 0.36
0.04 0.03 0.03 0.03 0.05 0.05 0.06 0.08 0.10 0.12 0.12 0.12 0.13 0.12 0.12 0.13 0.14 0.16 0.22 0.33 0.40 0.41 0.44 0.46 0.46 0.41 0.37 0.34 0.25 0.25 0.32 0.39 0.43 0.41 0.40 0.45 0.46 0.55 0.56 0.52 0.62 0.60 0.49
0.01 0.00 0.00 0.00 0.00 0.00 0.00 0.00 0.00 0.01 0.01 0.01 0.01 0.01 0.02 0.02 0.03 0.06 0.08 0.15 0.19 0.24 0.32 0.33 0.36 0.39 0.37 0.42 0.29 0.28 0.32 0.38 0.44 0.45 0.45 0.57 0.54 0.56 0.53 0.45 0.63 0.65 0.55
0.00 0.00 0.00 0.00 0.00 0.00 0.00 0.00 0.00 0.00 0.00 0.00 0.00 0.00 0.00 0.00 0.01 0.02 0.03 0.06 0.08 0.12 0.16 0.21 0.27 0.33 0.38 0.45 0.40 0.42 0.42 0.43 0.52 0.52 0.48 0.46 0.53 0.38 0.37 0.37 0.42 0.57 0.51
0.00 0.00 0.00 0.00 0.00 0.00 0.00 0.00 0.00 0.00 0.00 0.00 0.00 0.00 0.00 0.00 0.01 0.01 0.02 0.02 0.03 0.06 0.09 0.11 0.15 0.21 0.26 0.32 0.36 0.36 0.38 0.40 0.49 0.52 0.44 0.44 0.49 0.33 0.28 0.29 0.36 0.42 0.46
0.00 0.00 0.00 0.00 0.00 0.00 0.00 0.00 0.00 0.00 0.00 0.00 0.00 0.00 0.00 0.01 0.01 0.01 0.01 0.02 0.03 0.05 0.06 0.09 0.15 0.21 0.27 0.28 0.23 0.20 0.21 0.25 0.37 0.40 0.42 0.44 0.40 0.32 0.26 0.26 0.31 0.34 0.39
0.00 0.00 0.00 0.00 0.00 0.00 0.00 0.00 0.00 0.00 0.00 0.00 0.00 0.00 0.01 0.01 0.01 0.02 0.03 0.03 0.04 0.05 0.09 0.13 0.18 0.22 0.25 0.26 0.23 0.25 0.26 0.24 0.28 0.30 0.30 0.32 0.31 0.33 0.30 0.27 0.30 0.34 0.38
0.00 0.00 0.00 0.00 0.00 0.00 0.00 0.00 0.00 0.00 0.00 0.00 0.00 0.00 0.00 0.01 0.01 0.01 0.01 0.02 0.03 0.04 0.10 0.17 0.21 0.21 0.21 0.15 0.14 0.24 0.34 0.39 0.45 0.51 0.45 0.43 0.40 0.37 0.34 0.31 0.30 0.33 0.35
0.00 0.00 0.00 0.00 0.00 0.00 0.00 0.00 0.00 0.00 0.00 0.00 0.00 0.00 0.00 0.01 0.01 0.01 0.01 0.01 0.02 0.05 0.07 0.07 0.09 0.10 0.09 0.09 0.10 0.16 0.26 0.34 0.43 0.58 0.62 0.62 0.61 0.56 0.48 0.39 0.31 0.26 0.25